When you browse on this site, cookies collect data to enhance your experience and personalize the content and advertising you see.
Visit our Privacy Policy to learn more. By continuing to use the site, you agree to this use of cookies and data.

Meteo pe oră la Basse Santa Su

Astăzi, 14 August, Vineri

Timp Temperatura Precipitaţii Vânt Presiune Umiditate
00:00 +26°C° 0 mm 2 m/s 759 mmHg 95%
01:00 +26°C° 0 mm 2 m/s 758 mmHg 95%
02:00 +26°C° 0 mm 2 m/s 758 mmHg 95%
03:00 +26°C° 0.1 mm 2 m/s 758 mmHg 96%
04:00 +25°C° 0.1 mm 2 m/s 758 mmHg 96%
05:00 +25°C° 0.1 mm 1 m/s 758 mmHg 97%
06:00 +26°C° 0 mm 2 m/s 758 mmHg 94%
07:00 +27°C° 0 mm 2 m/s 758 mmHg 90%
08:00 +28°C° 0 mm 2 m/s 759 mmHg 87%
09:00 +29°C° 0.1 mm 2 m/s 758 mmHg 81%
10:00 +30°C° 0.1 mm 2 m/s 758 mmHg 75%
11:00 +32°C° 0.1 mm 2 m/s 758 mmHg 69%
12:00 +32°C° 0.9 mm 2 m/s 757 mmHg 67%
13:00 +34°C° 0.9 mm 2 m/s 756 mmHg 66%
14:00 +33°C° 0.9 mm 1 m/s 756 mmHg 65%
15:00 +33°C° 1.8 mm 1 m/s 756 mmHg 70%
16:00 +32°C° 1.8 mm 1 m/s 756 mmHg 74%
17:00 +31°C° 1.8 mm 2 m/s 755 mmHg 78%
18:00 +30°C° 1.1 mm 2 m/s 756 mmHg 83%
19:00 +29°C° 1.1 mm 2 m/s 756 mmHg 87%
20:00 +27°C° 1.1 mm 3 m/s 757 mmHg 91%
21:00 +27°C° 0.2 mm 3 m/s 757 mmHg 92%
22:00 +26°C° 0.2 mm 3 m/s 757 mmHg 94%
23:00 +26°C° 0.2 mm 3 m/s 758 mmHg 96%

Mâine, 15 August, Sâmbătă

Timp Temperatura Precipitaţii Vânt Presiune Umiditate
00:00 +26°C° 0.1 mm 3 m/s 757 mmHg 96%
01:00 +26°C° 0.1 mm 3 m/s 757 mmHg 97%
02:00 +26°C° 0.1 mm 2 m/s 757 mmHg 97%
03:00 +26°C° 0 mm 2 m/s 756 mmHg 97%
04:00 +26°C° 0 mm 2 m/s 756 mmHg 97%
05:00 +26°C° 0 mm 1 m/s 756 mmHg 97%
06:00 +27°C° 0 mm 2 m/s 757 mmHg 95%
07:00 +27°C° 0 mm 2 m/s 757 mmHg 92%
08:00 +28°C° 0 mm 2 m/s 757 mmHg 90%
09:00 +30°C° 0 mm 2 m/s 757 mmHg 82%
10:00 +31°C° 0 mm 2 m/s 757 mmHg 75%
11:00 +34°C° 0 mm 2 m/s 757 mmHg 68%
12:00 +34°C° 0.2 mm 2 m/s 756 mmHg 66%
13:00 +35°C° 0.2 mm 2 m/s 755 mmHg 65%
14:00 +35°C° 0.2 mm 2 m/s 754 mmHg 64%
15:00 +35°C° 0.4 mm 2 m/s 754 mmHg 66%
16:00 +34°C° 0.4 mm 1 m/s 753 mmHg 69%
17:00 +33°C° 0.4 mm 1 m/s 753 mmHg 72%
18:00 +32°C° 1.9 mm 1 m/s 753 mmHg 78%
19:00 +30°C° 1.9 mm 1 m/s 754 mmHg 85%
20:00 +28°C° 1.9 mm 1 m/s 754 mmHg 92%
21:00 +28°C° 6.9 mm 2 m/s 755 mmHg 94%
22:00 +27°C° 6.9 mm 2 m/s 755 mmHg 96%
23:00 +27°C° 6.9 mm 2 m/s 755 mmHg 97%

Poimâine, 16 August, Duminică

Timp Temperatura Precipitaţii Vânt Presiune Umiditate
00:00 +27°C° 0 mm 2 m/s 755 mmHg 97%
01:00 +26°C° 0 mm 2 m/s 755 mmHg 97%
02:00 +26°C° 0 mm 2 m/s 754 mmHg 97%
03:00 +26°C° 0 mm 2 m/s 754 mmHg 97%
04:00 +26°C° 0 mm 1 m/s 754 mmHg 97%
05:00 +26°C° 0 mm 1 m/s 754 mmHg 98%
06:00 +27°C° 0 mm 1 m/s 755 mmHg 94%
07:00 +27°C° 0 mm 1 m/s 755 mmHg 91%
08:00 +28°C° 0 mm 1 m/s 756 mmHg 88%
09:00 +30°C° 0 mm 1 m/s 756 mmHg 80%
10:00 +31°C° 0 mm 2 m/s 756 mmHg 73%
11:00 +34°C° 0 mm 2 m/s 756 mmHg 65%
12:00 +35°C° 0 mm 2 m/s 755 mmHg 63%
13:00 +35°C° 0 mm 3 m/s 754 mmHg 62%
14:00 +36°C° 0 mm 3 m/s 754 mmHg 60%
15:00 +35°C° 0 mm 2 m/s 754 mmHg 64%
16:00 +35°C° 0 mm 2 m/s 753 mmHg 68%
17:00 +34°C° 0 mm 2 m/s 753 mmHg 72%
18:00 +32°C° 0 mm 2 m/s 754 mmHg 75%
19:00 +31°C° 0 mm 2 m/s 754 mmHg 78%
20:00 +30°C° 0 mm 2 m/s 755 mmHg 81%
21:00 +29°C° 0.9 mm 3 m/s 755 mmHg 85%
22:00 +28°C° 0.9 mm 3 m/s 755 mmHg 89%
23:00 +28°C° 0.9 mm 4 m/s 755 mmHg 93%

17 August, Luni

Timp Temperatura Precipitaţii Vânt Presiune Umiditate
00:00 +27°C° 0 mm 3 m/s 755 mmHg 94%
01:00 +27°C° 0 mm 3 m/s 755 mmHg 94%
02:00 +27°C° 0 mm 2 m/s 754 mmHg 95%
03:00 +27°C° 0 mm 2 m/s 754 mmHg 96%
04:00 +26°C° 0 mm 2 m/s 754 mmHg 96%
05:00 +26°C° 0 mm 2 m/s 755 mmHg 96%
06:00 +27°C° 0 mm 2 m/s 755 mmHg 93%
07:00 +28°C° 0 mm 2 m/s 755 mmHg 90%
08:00 +29°C° 0 mm 3 m/s 756 mmHg 87%
09:00 +29°C° 0 mm 2 m/s 756 mmHg 85%
10:00 +30°C° 0 mm 2 m/s 756 mmHg 82%
11:00 +30°C° 0 mm 2 m/s 756 mmHg 80%
12:00 +31°C° 0 mm 2 m/s 755 mmHg 77%
13:00 +33°C° 0 mm 3 m/s 755 mmHg 74%
14:00 +33°C° 0 mm 3 m/s 754 mmHg 71%
15:00 +33°C° 0 mm 3 m/s 754 mmHg 72%
16:00 +33°C° 0 mm 3 m/s 754 mmHg 73%
17:00 +32°C° 0 mm 2 m/s 754 mmHg 74%
18:00 +31°C° 0.7 mm 2 m/s 755 mmHg 79%
19:00 +29°C° 0.7 mm 2 m/s 755 mmHg 85%
20:00 +28°C° 0.7 mm 2 m/s 756 mmHg 90%
21:00 +28°C° 0.5 mm 2 m/s 756 mmHg 92%
22:00 +27°C° 0.5 mm 2 m/s 757 mmHg 94%
23:00 +27°C° 0.5 mm 2 m/s 757 mmHg 95%

18 August, Marţi

Timp Temperatura Precipitaţii Vânt Presiune Umiditate
00:00 +27°C° 0.1 mm 2 m/s 757 mmHg 96%
01:00 +26°C° 0.1 mm 2 m/s 756 mmHg 96%
02:00 +26°C° 0.1 mm 2 m/s 756 mmHg 96%
03:00 +26°C° 0 mm 2 m/s 756 mmHg 97%
04:00 +26°C° 0 mm 2 m/s 756 mmHg 97%
05:00 +26°C° 0 mm 2 m/s 756 mmHg 97%
06:00 +26°C° 0 mm 2 m/s 756 mmHg 95%
07:00 +27°C° 0 mm 2 m/s 757 mmHg 93%
08:00 +28°C° 0 mm 3 m/s 757 mmHg 90%
09:00 +29°C° 0 mm 2 m/s 757 mmHg 82%
10:00 +31°C° 0 mm 2 m/s 756 mmHg 75%
11:00 +34°C° 0 mm 2 m/s 756 mmHg 67%
12:00 +34°C° 0 mm 2 m/s 756 mmHg 65%
13:00 +35°C° 0 mm 2 m/s 755 mmHg 64%
14:00 +35°C° 0 mm 2 m/s 754 mmHg 62%
15:00 +35°C° 0 mm 2 m/s 754 mmHg 65%
16:00 +34°C° 0 mm 2 m/s 754 mmHg 68%
17:00 +34°C° 0 mm 2 m/s 754 mmHg 71%
18:00 +31°C° 0.2 mm 2 m/s 755 mmHg 78%
19:00 +30°C° 0.2 mm 2 m/s 755 mmHg 84%
20:00 +28°C° 0.2 mm 3 m/s 756 mmHg 91%
21:00 +28°C° 0.1 mm 3 m/s 756 mmHg 92%
22:00 +27°C° 0.1 mm 3 m/s 756 mmHg 93%
23:00 +27°C° 0.1 mm 3 m/s 756 mmHg 94%

19 August, Miercuri

Timp Temperatura Precipitaţii Vânt Presiune Umiditate
00:00 +27°C° 0.1 mm 3 m/s 756 mmHg 94%
01:00 +27°C° 0.1 mm 2 m/s 756 mmHg 95%
02:00 +27°C° 0.1 mm 2 m/s 755 mmHg 96%
03:00 +26°C° 1.6 mm 2 m/s 755 mmHg 96%
04:00 +26°C° 1.6 mm 2 m/s 755 mmHg 97%
05:00 +26°C° 1.6 mm 1 m/s 755 mmHg 98%
06:00 +26°C° 0.4 mm 1 m/s 756 mmHg 96%
07:00 +27°C° 0.4 mm 1 m/s 757 mmHg 95%
08:00 +27°C° 0.4 mm 2 m/s 757 mmHg 93%
09:00 +27°C° 3.6 mm 2 m/s 757 mmHg 91%
10:00 +27°C° 3.6 mm 2 m/s 756 mmHg 89%
11:00 +27°C° 3.6 mm 2 m/s 756 mmHg 87%
12:00 +28°C° 0 mm 2 m/s 755 mmHg 79%
13:00 +30°C° 0 mm 1 m/s 754 mmHg 71%
14:00 +32°C° 0 mm 1 m/s 754 mmHg 64%
15:00 +32°C° 0.1 mm 1 m/s 754 mmHg 67%
16:00 +32°C° 0.1 mm 1 m/s 753 mmHg 71%
17:00 +31°C° 0.1 mm 1 m/s 753 mmHg 74%
18:00 +30°C° 0 mm 1 m/s 754 mmHg 79%
19:00 +29°C° 0 mm 1 m/s 754 mmHg 84%
20:00 +28°C° 0 mm 1 m/s 755 mmHg 89%
21:00 +28°C° 0.1 mm 2 m/s 755 mmHg 90%
22:00 +27°C° 0.1 mm 2 m/s 755 mmHg 92%
23:00 +27°C° 0.1 mm 2 m/s 755 mmHg 94%
Arată mai mult